Location: Sternwarte ZA, Rosenfeld-Brittheim
(48.2889°N, 8.6789°E)
Time: 19:39:27
(UTC+02:00)

ISS - Pass Details

Date: 19 July 2019
Orbit: 409 x 418 km, 51.6° (Epoch: 20 July)

Event Time Altitude Azimuth Distance (km) Brightness Sun altitude
Rises 23:49:08 0° 264° (W) 2,350 0.3 -17.2°
Reaches altitude 10° 23:51:16 10° 270° (W) 1,487 -0.7 -17.4°
Maximum altitude 23:54:32 53° 348° (NNW) 514 -3.0 -17.6°
Drops below altitude 10° 23:57:49 10° 67° (ENE) 1,485 -1.0 -17.8°
Sets 23:59:56 0° 72° (ENE) 2,346 0.0 -18.0°
